SENTINEL-2B (42063 NORAD) Tracking and Keplerian Element Data

This shows tracking and keplerian element data for the satellite.

Feedback or suggestion? Click here.




ElementValue
Catalog42063
NameSENTINEL-2B
Epoch Orbit8820
Epoch Day317.82985948
Epoch Year2018
RAAN30.3826
Inclination98.5679
Eccentricity0.0001217
Argument of Perigee87.5007
Mean Anonmoly272.6314
Mean Motion14.30818396
Decay Rate7E-08
L11 42063U 17013A 18317.82985948 .00000007 00000-0 19350-4 0 9999
L22 42063 98.5679 30.3826 0001217 87.5007 272.6314 14.30818396 88207

Live tracking and technical data element details for SENTINEL-2B (NORAD 42063). SENTINEL-2B can be tracked NOW for your location showing map with azimuth and elevation plus other details from your city location.

Track the satellite on the map from your city or location and see movement details for azimuth, elevation, latitude, longitude, range, height, and movement on the map or in text.







IsCatalogInMostPopularTable: catalog: 42063, numindb: 143
Update: records affected: 1



GetName: 42063 SENTINEL-2B

Hit Count: updated at: Wed, 14 Nov 2018 12:01:44 GMT